Printer-friendly version

IAU Minor Planet Center

Minor Planet Center

(78043) 2002 JU113

Orbital Elements

The following orbital elements are taken from MPO 55471
 (78043) 2002 JU113
Epoch 2007 Oct. 27.0 TT = JDT 2454400.5                 MPC
M 111.71166              (2000.0)            P               Q
n   0.27088394     Peri.   53.00671     +0.43270881     +0.87676484
a   2.3656321      Node   243.90205     -0.88346626     +0.36601447
e   0.0982610      Incl.   13.51500     -0.17958413     +0.31195645
P   3.64           H   16.0           G   0.15           U   1
From 66 observations at 4 oppositions, 1996-2003, mean residual 0".50.
An explanation of the orbital elements is available.

These orbital elements are also available in forms suitable for loading into a number of popular planetarium-type software programs.


Ephemeris

The following ephemeris is at intervals of five days. A daily ephemeris covering the same time interval is also available.

Personalized ephemerides for this (and other) objects may be generated using the Minor Planet & Comet Ephemeris Service.

Date    TT    R. A. (2000) Decl.     Delta      r     Elong.  Phase     V
2009 10 26    15 07.36   -18 44.4    3.164    2.233    17.1     7.5    20.8

2010 02 03    18 50.01   -18 50.0    2.924    2.156    32.3    14.1    20.8
2010 02 08    19 00.83   -18 17.1    2.890    2.154    34.7    15.1    20.8
2010 02 13    19 11.51   -17 41.1    2.853    2.151    37.2    16.1    20.8
2010 02 18    19 22.05   -17 02.0    2.815    2.149    39.7    17.1    20.8
2010 02 23    19 32.43   -16 19.9    2.775    2.147    42.2    18.0    20.8
2010 02 28    19 42.64   -15 35.1    2.733    2.145    44.6    18.9    20.8
2010 03 05    19 52.67   -14 47.5    2.690    2.143    47.1    19.8    20.8
2010 03 10    20 02.52   -13 57.3    2.646    2.141    49.6    20.7    20.8
2010 03 15    20 12.17   -13 04.7    2.601    2.139    52.1    21.5    20.8
2010 03 20    20 21.61   -12 09.7    2.554    2.138    54.6    22.3    20.8
2010 03 25    20 30.83   -11 12.5    2.506    2.137    57.2    23.1    20.7
2010 03 30    20 39.82   -10 13.4    2.457    2.136    59.7    23.8    20.7
2010 04 04    20 48.58   -09 12.3    2.408    2.135    62.3    24.5    20.7
2010 04 09    20 57.10   -08 09.6    2.357    2.134    64.9    25.1    20.7
2010 04 14    21 05.36   -07 05.2    2.306    2.133    67.5    25.7    20.6
2010 04 19    21 13.34   -05 59.5    2.254    2.133    70.1    26.3    20.6
2010 04 24    21 21.04   -04 52.7    2.202    2.132    72.8    26.8    20.6
2010 04 29    21 28.45   -03 44.8    2.149    2.132    75.5    27.2    20.5
2010 05 04    21 35.54   -02 36.1    2.096    2.132    78.2    27.6    20.5
2010 05 09    21 42.31   -01 26.7    2.043    2.132    81.0    27.9    20.4
2010 05 14    21 48.73   -00 16.9    1.990    2.133    83.8    28.1    20.4
2010 05 19    21 54.78   +00 53.0    1.937    2.133    86.7    28.3    20.3
2010 05 24    22 00.43   +02 02.9    1.884    2.134    89.7    28.3    20.3
2010 05 29    22 05.66   +03 12.4    1.832    2.135    92.7    28.3    20.2
2010 06 03    22 10.44   +04 21.4    1.780    2.136    95.8    28.2    20.1
2010 06 08    22 14.74   +05 29.5    1.728    2.137    99.0    28.0    20.1
2010 06 13    22 18.52   +06 36.2    1.678    2.138   102.3    27.7    20.0
2010 06 18    22 21.75   +07 41.3    1.629    2.139   105.6    27.2    19.9
2010 06 23    22 24.39   +08 44.1    1.581    2.141   109.1    26.6    19.8
2010 06 28    22 26.40   +09 44.3    1.534    2.143   112.7    26.0    19.8
2010 07 03    22 27.76   +10 41.3    1.490    2.145   116.4    25.1    19.7
2010 07 08    22 28.43   +11 34.4    1.447    2.147   120.2    24.2    19.6
2010 07 13    22 28.38   +12 22.9    1.407    2.149   124.1    23.1    19.5
2010 07 18    22 27.60   +13 05.9    1.370    2.151   128.1    21.8    19.4
2010 07 23    22 26.10   +13 42.8    1.336    2.153   132.1    20.5    19.3
2010 07 28    22 23.92   +14 12.7    1.306    2.156   136.2    19.0    19.2
2010 08 02    22 21.08   +14 34.9    1.279    2.159   140.2    17.5    19.1
2010 08 07    22 17.66   +14 48.7    1.257    2.162   144.1    16.0    19.0
2010 08 12    22 13.76   +14 53.6    1.239    2.165   147.8    14.5    19.0
2010 08 17    22 09.52   +14 49.3    1.226    2.168   151.0    13.1    18.9
2010 08 22    22 05.08   +14 36.1    1.219    2.171   153.5    12.0    18.8
2010 08 27    22 00.62   +14 14.2    1.216    2.174   155.0    11.3    18.8
2010 09 01    21 56.29   +13 44.5    1.220    2.178   155.3    11.2    18.8
2010 09 06    21 52.24   +13 08.0    1.229    2.182   154.4    11.5    18.8
2010 09 11    21 48.64   +12 25.9    1.243    2.185   152.3    12.4    18.9
2010 09 16    21 45.62   +11 39.8    1.263    2.189   149.4    13.5    19.0
2010 09 21    21 43.26   +10 51.3    1.288    2.193   146.0    14.9    19.1
2010 09 26    21 41.64   +10 01.7    1.318    2.197   142.1    16.3    19.2
2010 10 01    21 40.79   +09 12.4    1.352    2.201   138.1    17.7    19.3
2010 10 06    21 40.72   +08 24.6    1.391    2.206   133.9    19.1    19.4
2010 10 11    21 41.43   +07 39.2    1.434    2.210   129.7    20.3    19.5
2010 10 16    21 42.91   +06 57.1    1.481    2.214   125.6    21.5    19.6
2010 10 21    21 45.13   +06 18.9    1.530    2.219   121.5    22.5    19.7
2010 10 26    21 48.02   +05 45.0    1.583    2.224   117.4    23.4    19.8
2010 10 31    21 51.55   +05 15.6    1.638    2.228   113.5    24.1    19.9
2010 11 05    21 55.67   +04 50.9    1.695    2.233   109.6    24.7    20.0
2010 11 10    22 00.33   +04 31.0    1.754    2.238   105.9    25.2    20.1
2010 11 15    22 05.49   +04 15.8    1.815    2.243   102.2    25.5    20.2
2010 11 20    22 11.09   +04 05.3    1.877    2.248    98.6    25.8    20.3
2010 11 25    22 17.10   +03 59.3    1.940    2.253    95.0    25.9    20.4
2010 11 30    22 23.46   +03 57.7    2.004    2.258    91.6    25.9    20.5

Valid HTML 4.01!